CST,Max TemperatureF,Mean TemperatureF,Min TemperatureF,Max Dew PointF,MeanDew PointF,Min DewpointF,Max Humidity, Mean Humidity, Min Humidity, Max Sea Level PressureIn, Mean Sea Level PressureIn, Min Sea Level PressureIn, Max VisibilityMiles, Mean VisibilityMiles, Min VisibilityMiles, Max Wind SpeedMPH, Mean Wind SpeedMPH, Max Gust SpeedMPH,PrecipitationIn, CloudCover, Events, WindDirDegrees
2012-11-1,62,44,26,32,23,7,93,57,11,30.04,29.98,29.95,10,10,10,12,2,18,0.00,1,,291
2012-11-2,73,53,33,45,37,32,93,63,27,30.04,29.99,29.94,10,10,7,13,2,20,0.00,1,,271
2012-11-3,78,58,37,52,43,36,93,65,32,30.12,30.04,29.97,10,10,7,15,2,22,0.00,0,,250
2012-11-4,62,48,35,54,44,32,94,73,41,30.11,30.05,30.00,10,10,2,12,3,16,0.00,2,Rain,335
2012-11-5,59,44,30,43,34,28,100,70,31,30.12,30.04,29.96,10,8,0,7,1,,0.06,3,Fog-Rain,45
2012-11-6,50,47,44,43,42,39,93,84,66,30.00,29.96,29.93,10,8,3,8,2,,0.48,8,Rain,56
2012-11-7,51,42,33,43,37,32,93,75,47,30.10,29.97,29.90,10,8,2,15,2,23,0.05,5,Rain,330
2012-11-8,59,44,30,41,33,30,100,75,34,30.23,30.18,30.10,10,6,0,8,1,,0.00,0,Fog,32
2012-11-9,66,49,32,41,35,28,93,60,24,30.32,30.24,30.19,10,7,0,5,1,,0.00,1,Fog,347
2012-11-10,69,51,33,41,35,28,93,67,21,30.35,30.29,30.24,10,8,2,9,1,,0.00,0,,211
2012-11-11,68,50,33,48,41,32,93,64,43,30.37,30.29,30.22,10,10,5,12,2,21,0.00,1,,158
2012-11-12,62,48,35,57,47,32,94,81,63,30.38,30.26,30.18,10,8,2,12,5,20,0.49,5,Rain,190
2012-11-13,53,42,32,32,25,19,93,61,26,30.41,30.35,30.30,10,10,10,16,6,23,0.00,0,,27
2012-11-14,53,42,32,37,31,27,87,61,43,30.38,30.31,30.25,10,10,10,9,1,20,0.00,4,,84
2012-11-15,59,47,35,37,35,32,93,66,36,30.31,30.26,30.21,10,10,5,6,0,,0.00,2,,55
2012-11-16,60,46,32,36,29,19,100,67,20,30.33,30.29,30.25,10,9,1,8,1,,0.00,0,,37
2012-11-17,55,42,30,34,30,27,93,78,33,30.44,30.37,30.33,10,10,7,8,1,,0.00,0,,69
2012-11-18,62,47,32,34,31,27,93,68,30,30.42,30.35,30.30,10,10,10,9,1,,0.00,1,,31
2012-11-19,64,48,32,41,34,30,100,69,32,30.33,30.26,30.19,10,10,3,0,0,,0.00,1,,-1
2012-11-20,66,50,35,41,38,34,93,66,32,30.20,30.14,30.08,10,10,7,7,0,,0.00,2,,322
2012-11-21,64,50,37,43,40,36,93,82,40,30.20,30.15,30.11,10,9,5,9,1,,0.00,2,,42
2012-11-22,68,50,33,45,36,32,93,70,26,30.26,30.20,30.16,10,8,2,7,1,,0.00,0,,182
2012-11-23,64,48,33,46,39,32,93,77,45,30.19,30.15,30.09,10,9,2,12,2,16,0.00,2,,299
2012-11-24,46,36,26,32,20,14,86,56,27,30.25,30.18,30.16,10,10,10,15,4,22,0.00,0,,348
2012-11-25,55,39,23,27,20,12,93,60,18,30.18,30.13,30.06,10,10,10,7,1,,0.00,0,,209
2012-11-26,62,45,28,45,31,21,93,61,20,30.20,30.14,30.10,10,10,7,7,0,,0.00,4,Rain,163
2012-11-27,53,47,39,48,42,32,94,79,67,30.28,30.18,30.08,10,9,2,10,3,16,0.08,8,Rain,357
2012-11-28,55,42,30,32,27,12,93,64,18,30.42,30.36,30.29,10,10,7,12,3,,0.00,2,,17
2012-11-29,60,43,26,32,24,10,93,63,15,30.43,30.35,30.30,10,10,7,5,0,,0.00,0,,133
2012-11-30,62,47,32,45,38,28,93,75,52,30.36,30.30,30.25,10,9,2,15,1,,0.00,4,,222